Regional Weather Roundup
Issued by NWS

Home | Current Version | Previous Version | Text Only | Print | Product List | Glossary On
Versions: 1 2 3 4 5 6 7 8 9 10 11 12 13 14 15 16 17 18 19 20 21 22 23 24 25 26 27 28 29 30 31 32 33 34 35 36 37 38 39 40 41 42 43 44 45 46 47 48 49 50
000
ASUS43 KLMK 301202
RWRKY
KENTUCKY REGIONAL WEATHER ROUNDUP
NATIONAL WEATHER SERVICE LOUISVILLE KY
800 AM EDT TUE AUG 30 2016

NOTE "FAIR" INDICATES FEW OR NO CLOUDS BELOW 12,000 FEET
WITH NO SIGNIFICANT WEATHER AND/OR OBSTRUCTIONS TO VISIBILITY.

KYZ001>023-026-027-061>063-070>075-301300-
WESTERN AND SOUTH CENTRAL KENTUCKY

CITY           SKY/WX    TMP DP  RH WIND       PRES   REMARKS
PADUCAH        FAIR      73  71  93 CALM      30.10R FOG
HENDERSON      FAIR      73  70  88 NE3       30.12R
OWENSBORO      FAIR      76  73  90 N6        30.13R
HOPKINSVILLE   FAIR      73  71  93 CALM      30.10R
BOWLING GREEN  FAIR      72  70  93 NE3       30.11R
GLASGOW        FAIR      71  71 100 E5        30.12R FOG
$$

KYZ024-025-028>034-038-045-046-053-301300-
NORTH CENTRAL KENTUCKY

CITY           SKY/WX    TMP DP  RH WIND       PRES   REMARKS
LOUISVILLE/SDF FAIR      75  71  87 N5        30.13R
LOUISVILLE/LOU FAIR      73  70  90 NW3       30.14R
FORT KNOX      FAIR      72  70  95 NE3       30.12R
$$

KYZ035>037-039>044-047>052-055>060-089>105-301300-
NORTHEAST KENTUCKY

CITY           SKY/WX    TMP DP  RH WIND       PRES   REMARKS
LEXINGTON      FAIR      73  67  81 NE6       30.15S
COVINGTON      FAIR      72  69  90 E5        30.16S
FRANKFORT      FAIR      72  68  87 CALM      30.15R
$$

KYZ054-064>069-076>088-106>120-301300-
SOUTHEAST KENTUCKY

CITY           SKY/WX    TMP DP  RH WIND       PRES   REMARKS
JACKSON        FAIR      71  68  90 CALM      30.17R
LONDON         FAIR      70  67  90 NE3       30.15R
SOMERSET       FAIR      68  68 100 CALM      30.15R
MIDDLESBORO    FOG       68  68 100 CALM      30.16S VSB<1/4
MONTICELLO     FAIR     N/A N/A N/A NE10      30.15R
$$





USA.gov is the U.S. government's official web portal to all federal, state and local government web resources and services.